James Reserve, California Weather observations

Data are for 10 minute period ending at time listed.
 Day   Time   Solar   Ave.   Ave.  Ave.  Vector  Max.   Baro.   Total    
  of    of     Rad.   Air    Rel.  Wind   Wind   Wind  Press.  Precip.   
Year   Day            Temp.  Hum.  Speed  Dir.   Gust                    
2014   (PST)  Kw/m2    F      %     mph   deg.    mph    mb.     in.     
-------------------------------------------------------------------------
 302   10:50   0.13   67.8    20    0.9   218     1.8   842.0    0.00 
 302   11:00   0.77   67.8    20    0.8   145     2.1   842.0    0.00 
 302   11:10   0.77   68.1    20    0.9   209     1.8   841.0    0.00 
 302   11:20   0.77   68.6    20    0.7   151     2.3   841.0    0.00 
 302   11:30   0.77   69.8    19    0.9   360     2.4   841.0    0.00 
 302   11:40   0.77   70.6    19    0.8   257     2.1   841.0    0.00 
 302   11:50   0.77   69.9    19    0.8    13     2.8   841.0    0.00 
 302   12:00   0.77   69.2    19    1.1   168     2.8   841.0    0.00 
 302   12:10   0.76   70.3    19    0.7   231     1.9   841.0    0.00 
 302   12:20   0.75   71.1    19    0.8   317     2.5   841.0    0.00 
 302   12:30   0.74   70.6    18    1.0   201     3.5   841.0    0.00 
 302   12:40   0.73   70.5    18    0.8   202     1.8   840.0    0.00 
 302   12:50   0.72   70.9    18    0.9   312     2.2   840.0    0.00 
 302   13:00   0.70   71.2    18    1.0   179     3.5   840.0    0.00 
 302   13:10   0.69   71.3    18    0.9   148     2.5   840.0    0.00 
 302   13:20   0.66   71.1    18    0.8   188     2.0   840.0    0.00 
 302   13:30   0.35   70.7    18    0.8   194     2.5   840.0    0.00 
 302   13:40   0.09   69.8    19    0.7   244     1.9   840.0    0.00 
 302   13:50   0.49   70.3    18    0.8   162     2.3   840.0    0.00 
 302   14:00   0.57   69.5    19    0.7   218     2.4   840.0    0.00 
 302   14:10   0.54   69.9    18    0.9   172     2.2   840.0    0.00 
 302   14:20   0.14   69.5    19    0.7   134     2.9   840.0    0.00 
 302   14:30   0.03   69.2    18    0.9   161     2.2   840.0    0.00 
 302   14:40   0.03   68.7    19    0.5   279     1.5   840.0    0.00 
 302   14:50   0.04   68.6    19    0.7   194     2.8   840.0    0.00 
 302   15:00   0.04   68.2    20    0.5   224     1.3   840.0    0.00 
 302   15:10   0.07   67.9    19    0.6    11     1.4   840.0    0.00 
 302   15:20   0.04   68.3    19    0.7   159     1.7   840.0    0.00 
 302   15:30   0.03   67.1    20    0.5   337     1.7   840.0    0.00 
 302   15:40   0.03   66.9    20    0.5   153     1.6   840.0    0.00 
 302   15:50   0.03   65.7    22    0.4   255     1.4   840.0    0.00 
 302   16:00   0.02   64.9    23    0.5    95     1.2   840.0    0.00 
 302   16:10   0.02   64.1    23    0.5   118     1.1   840.0    0.00 
 302   16:20   0.01   62.6    26    0.3    34     0.7   840.0    0.00 
 302   16:30   0.01   61.3    25    0.4    66     0.7   840.0    0.00 
 302   16:40   0.00   59.8    25    0.4    52     1.0   840.0    0.00 
 302   16:50   0.00   58.4    26    0.3    67     0.9   840.0    0.00 
 302   17:00   0.00   57.5    27    0.5    53     0.9   840.0    0.00 
 302   17:10   0.00   56.4    28    0.4    57     0.9   840.0    0.00 
 302   17:20   0.00   55.5    28    0.4    57     0.7   840.0    0.00 
 302   17:30   0.00   54.5    29    0.3    54     0.6   840.0    0.00 
 302   17:40   0.00   53.7    32    0.2    12     0.3   840.0    0.00 
 302   17:50   0.00   52.9    35    0.2     3     0.4   840.0    0.00 
 302   18:00   0.00   52.1    37    0.3    19     0.5   840.0    0.00 
 302   18:10   0.00   51.6    38    0.2    20     0.4   840.0    0.00 
 302   18:20   0.00   51.0    41    0.2    10     0.5   841.0    0.00 
 302   18:30   0.00   50.5    41    0.3    26     0.5   841.0    0.00 
 302   18:40   0.00   49.7    41    0.2   330     0.4   841.0    0.00 
 302   18:50   0.00   49.0    41    0.3    19     0.4   841.0    0.00 
 302   19:00   0.00   48.6    40    0.2     8     0.4   841.0    0.00 
 302   19:10   0.00   48.0    40    0.2    14     0.4   841.0    0.00 
 302   19:20   0.00   47.7    40    0.2     4     0.4   841.0    0.00 
 302   19:30   0.00   47.2    41    0.2    10     0.4   841.0    0.00 
 302   19:40   0.00   46.7    42    0.3    17     0.5   841.0    0.00 
 302   19:50   0.00   46.3    43    0.2    20     0.4   841.0    0.00 
 302   20:00   0.00   46.2    42    0.3    25     0.5   841.0    0.00 
 302   20:10   0.00   45.8    42    0.2   331     0.3   841.0    0.00 
 302   20:20   0.00   45.3    42    0.4    24     0.9   841.0    0.00 
 302   20:30   0.00   45.1    42    0.3    20     0.5   841.0    0.00 
 302   20:40   0.00   44.9    42    0.3    32     0.5   841.0    0.00 
 302   20:50   0.00   44.6    42    0.2    14     0.4   841.0    0.00 
 302   21:00   0.00   44.3    43    0.2    10     0.4   841.0    0.00 
 302   21:10   0.00   44.2    43    0.3    18     0.6   841.0    0.00 
 302   21:20   0.00   43.9    44    0.4    38     0.6   841.0    0.00 
 302   21:30   0.00   43.9    43    0.3     2     0.8   841.0    0.00 
 302   21:40   0.00   43.8    44    0.3    33     0.6   841.0    0.00 
 302   21:50   0.00   43.7    43    0.3    12     0.5   841.0    0.00 
 302   22:00   0.00   43.5    44    0.3    32     0.5   841.0    0.00 
 302   22:10   0.00   43.5    44    0.3    13     0.4   841.0    0.00 
 302   22:20   0.00   43.2    44    0.3    28     0.6   841.0    0.00 
 302   22:30   0.00   43.3    43    0.3    12     0.6   841.0    0.00 
 302   22:40   0.00   43.1    43    0.3   359     0.5   841.0    0.00 
 302   22:50   0.00   42.9    45    0.4    32     0.6   841.0    0.00 
 302   23:00   0.00   42.9    44    0.2     8     0.5   841.0    0.00 
 302   23:10   0.00   42.8    46    0.3    27     0.6   841.0    0.00 
 302   23:20   0.00   42.6    46    0.4    31     0.6   840.0    0.00 
 302   23:30   0.00   42.5    45    0.3     4     0.7   840.0    0.00 
 302   23:40   0.00   42.3    45    0.4    37     0.7   840.0    0.00 
 302   23:50   0.00   42.1    46    0.3    23     0.5   840.0    0.00 
 303    0:00   0.00   41.8    47    0.3    13     0.5   840.0    0.00 
 303    0:10   0.00   41.8    45    0.2    24     0.5   841.0    0.00 
 303    0:20   0.00   41.8    46    0.3    17     0.5   841.0    0.00 
 303    0:30   0.00   41.7    45    0.2    11     0.5   840.0    0.00 
 303    0:40   0.00   41.6    46    0.3    32     0.5   840.0    0.00 
 303    0:50   0.00   41.5    48    0.3    23     0.4   840.0    0.00 
 303    1:00   0.00   41.6    49    0.3     8     0.5   840.0    0.00 
 303    1:10   0.00   41.3    50    0.3    26     0.6   840.0    0.00 
 303    1:20   0.00   41.1    51    0.3    17     0.5   840.0    0.00 
 303    1:30   0.00   40.9    50    0.3    34     0.4   840.0    0.00 
 303    1:40   0.00   40.6    49    0.3    24     0.5   840.0    0.00 
 303    1:50   0.00   40.3    48    0.3    27     0.5   840.0    0.00 
 303    2:00   0.00   40.0    47    0.3    31     0.5   840.0    0.00 
 303    2:10   0.00   40.1    45    0.3    16     0.5   840.0    0.00 
 303    2:20   0.00   40.1    44    0.2    17     0.4   840.0    0.00 
 303    2:30   0.00   39.9    45    0.3    29     0.5   840.0    0.00 
 303    2:40   0.00   40.2    43    0.2    24     0.4   840.0    0.00 
 303    2:50   0.00   40.3    41    0.3    26     0.5   839.0    0.00 
 303    3:00   0.00   40.5    40    0.3    22     0.5   839.0    0.00 
 303    3:10   0.00   40.5    39    0.3    36     0.6   839.0    0.00 
 303    3:20   0.00   40.4    39    0.3    17     0.5   839.0    0.00 
 303    3:30   0.00   40.2    39    0.3    25     0.6   839.0    0.00 
 303    3:40   0.00   40.0    38    0.3    30     0.5   839.0    0.00 
 303    3:50   0.00   39.7    36    0.3    29     0.7   840.0    0.00 
 303    4:00   0.00   39.5    36    0.4    20     0.6   840.0    0.00 
 303    4:10   0.00   39.5    34    0.3    28     0.5   840.0    0.00 
 303    4:20   0.00   39.7    32    0.2    20     0.4   840.0    0.00 
 303    4:30   0.00   39.6    35    0.4    38     0.7   840.0    0.00 
 303    4:40   0.00   39.6    34    0.2    10     0.6   840.0    0.00 
 303    4:50   0.00   39.3    34    0.3    31     0.6   840.0    0.00 
 303    5:00   0.00   39.1    35    0.2    30     0.5   840.0    0.00 
 303    5:10   0.00   39.1    34    0.3    34     0.6   840.0    0.00 
 303    5:20   0.00   38.9    34    0.3     1     0.5   840.0    0.00 
 303    5:30   0.00   38.4    34    0.3    31     0.6   840.0    0.00 
 303    5:40   0.00   38.5    32    0.3    30     0.5   840.0    0.00 
 303    5:50   0.00   38.8    32    0.3    10     0.7   840.0    0.00 
 303    6:00   0.00   38.9    32    0.4    40     0.8   840.0    0.00 
 303    6:10   0.00   39.1    32    0.3    14     0.6   840.0    0.00 
 303    6:20   0.01   39.1    32    0.4    35     0.7   840.0    0.00 
 303    6:30   0.01   39.6    30    0.3    26     0.9   840.0    0.00 
 303    6:40   0.02   39.9    30    0.3    37     0.4   840.0    0.00 
 303    6:50   0.03   40.3    30    0.4    32     0.7   840.0    0.00 
 303    7:00   0.03   40.6    31    0.4    33     0.8   840.0    0.00 
 303    7:10   0.03   40.9    30    0.3    30     0.7   840.0    0.00 
 303    7:20   0.03   41.2    31    0.5    47     0.7   840.0    0.00 
 303    7:30   0.04   41.6    33    0.3    34     0.5   840.0    0.00 
 303    7:40   0.08   42.5    33    0.5    48     0.8   840.0    0.00 
 303    7:50   0.09   44.1    34    0.4    48     0.7   840.0    0.00 
 303    8:00   0.08   45.5    33    0.4    46     0.7   840.0    0.00 
 303    8:10   0.08   46.6    33    0.5    52     0.8   840.0    0.00 
 303    8:20   0.08   47.5    34    0.6    51     1.1   840.0    0.00 
 303    8:30   0.06   48.3    34    0.5    52     0.9   840.0    0.00 
 303    8:40   0.06   49.0    33    0.5    54     0.7   840.0    0.00 
 303    8:50   0.10   50.2    32    0.4    60     0.7   840.0    0.00 
 303    9:00   0.15   52.4    32    0.2    79     0.5   840.0    0.00 
 303    9:10   0.13   55.3    33    0.3   200     0.8   840.0    0.00 
 303    9:20   0.10   57.1    34    0.3   108     0.7   840.0    0.00 
 303    9:30   0.06   60.7    23    0.6    76     1.6   840.0    0.00 
 303    9:40   0.05   63.3    20    0.6    87     2.3   840.0    0.00 
 303    9:50   0.05   64.7    19    0.8   201     2.0   840.0    0.00 
 303   10:00   0.08   64.7    19    0.5   304     1.9   840.0    0.00 
 303   10:10   0.14   65.4    19    0.9   193     3.7   840.0    0.00 
 303   10:20   0.20   66.0    18    1.2    96     2.9   840.0    0.00 
 303   10:30   0.23   66.5    18    0.8   156     2.3   840.0    0.00 
 303   10:40   0.16   67.0    18    0.8   201     2.1   840.0    0.00 

Return to James Reserve graphs page.


Western Regional Climate Center,wrcc@dri.edu